www.pogodaiklimat.ru

Погода и климат >> Архив погоды >> Россия >> Тюменская область >> Тюмень


АРХИВ ПОГОДЫ в Тюмени

Время (UTC), дата Ветер
(напр.,м/с)
 
Видим.   Явления Облачность Т
(С)
Тd
(С)
f
(%)
Тe
(С)
Тes
(С)
Комфортность P
(гПа)
Po
(гПа)
Тmin
(С)
Tmax
(С)
R
(мм)
R24
(мм)
S
(см)
00 7.12 ЮВ 1 10 км 10/10 400 м
[St]
-8.0 -9.3 90 -10 -10 тепло 1030.2 1016.9
03 7.12 ЮВ 1 4000 м снежные зёрна 10/10 360 м
[St]
-7.8 -8.8 93 -10 -10 тепло 1029.8 1016.5 -9.3 0.0 18
06 7.12 Ю 3 4000 м снежные зёрна 10/10 300 м
[St]
-7.7 -8.2 96 -14 -14 по сезону 1029.8 1016.5
09 7.12 Ю 1 4000 м {снег} 10/8 300 м
[St]
-7.4 -8.7 90 -10 -10 по сезону 1029.0 1015.7
12 7.12 ЮВ 2 10 км {снег} 4/0
[Ac trans Ci sp]
-10.0 -11.1 92 -15 -15 по сезону 1029.2 1015.8
15 7.12 ЮВ 1 10 км ясно -12.6 -13.5 93 -15 -15 по сезону 1028.7 1015.2 -7.3 0.0
18 7.12 ЮВ 1 10 км ясно -14.1 -15.3 91 -17 -17 по сезону 1028.7 1015.1
21 7.12 ЮВ 1 10 км ясно -15.7 -17.1 89 -18 -18 по сезону 1029.0 1015.3
00 8.12 ЮВ 1 10 км ясно -15.4 -16.9 88 -18 -18 по сезону 1028.9 1015.2
03 8.12 ЮВ 1 10 км ясно -14.4 -16.8 82 -17 -17 по сезону 1028.9 1015.3 -16.5 17
06 8.12 ЮВ 2 4000 м 1/0
[Ci fib]
-11.6 -16.4 68 -16 -16 по сезону 1028.9 1015.4
09 8.12 ЮВ 1 4000 м [диам. изморози 0 мм] 1/0
[Ci fib]
-6.5 -13.5 58 -8 -8 тепло 1028.4 1015.2
12 8.12 ЮВ 2 10 км 1/0
[Ci fib]
-10.4 -13.9 75 -15 -15 по сезону 1028.5 1015.1
15 8.12 ЮВ 3 10 км 10/0
[Cs]
-11.4 -17.5 61 -17 -17 по сезону 1027.7 1014.3 -6.4
18 8.12 ЮВ 1 10 км ясно -13.4 -18.3 67 -16 -16 по сезону 1027.8 1014.2
21 8.12 ЮВ 2 10 км ясно -15.3 -19.4 71 -20 -20 по сезону 1027.7 1014.1
00 9.12 ЮВ 2 10 км ясно -16.7 -20.4 73 -22 -22 прохладно 1027.5 1013.8
03 9.12 ЮВ 1 10 км 3/0
[Ci fib]
-18.6 -21.4 79 -21 -21 прохладно 1027.5 1013.7 -18.6 17
06 9.12 Ю 2 4000 м 4/0
[Ci fib]
-17.4 -21.7 69 -23 -22 холодно 1027.5 1013.8 -19.1
09 9.12 ЮВ 1 4000 м 8/0
[Ac lent Cc]
-14.3 -19.9 62 -17 -16 по сезону 1027.0 1013.4
12 9.12 В 2 10 км 8/0
[Ac lent Cc]
-16.3 -20.2 72 -22 -22 холодно 1027.4 1013.7
15 9.12 ЮВ 1 10 км 8/0
[Ci fib]
-18.1 -21.4 75 -21 -21 прохладно 1027.5 1013.7 -14.2
18 9.12 ЮВ 1 10 км 10/0
[Ci fib]
-18.5 -21.7 76 -21 -21 прохладно 1027.6 1013.8
21 9.12 ЮВ 1 10 км ясно -19.3 -22.0 79 -22 -22 прохладно 1027.4 1013.5
00 10.12 ЮВ 1 10 км ясно -20.1 -22.9 78 -23 -23 прохладно 1027.2 1013.3
03 10.12 ЮВ 1 10 км ясно -21.0 -23.6 80 -24 -24 холодно 1027.2 1013.2 -21.0 17
06 10.12 ЮВ 1 4000 м 4/0
[Ci fib]
-19.7 -23.7 70 -23 -22 прохладно 1027.5 1013.6 -21.6
09 10.12 ЮВ 1 4000 м 4/0
[Ci fib]
-14.8 -21.4 57 -17 -17 по сезону 1026.8 1013.2
12 10.12 В 2 10 км 3/0
[Ci fib]
-18.2 -22.0 72 -24 -24 холодно 1027.4 1013.6
15 10.12 ЮВ 1 10 км ясно -20.5 -23.2 79 -24 -24 холодно 1028.1 1014.2 -14.0
18 10.12 ЮЗ 1 10 км 8/0
[Ci fib]
-23.0 -25.1 83 -26 -26 очень
холодно
1028.3 1014.2
21 10.12 ЮВ 1 10 км ясно -24.2 -26.6 80 -28 -28 очень
холодно
1028.5 1014.3
00 11.12 штиль 0 10 км 3/0
[Ci fib]
-24.7 -27.2 80 -25 -25 холодно 1028.6 1014.4
03 11.12 ЮВ 1 10 км 6/0
[Ci sp]
-24.6 -27.2 79 -28 -28 очень
холодно
1028.4 1014.2 -25.5 17
06 11.12 ЮЗ 1 4000 м 8/0
[Ac trans Ci fib]
-21.3 -24.1 78 -24 -24 холодно 1029.0 1015.0
09 11.12 ЮЗ 1 4000 м слабый снег 10/0
[As op]
-17.0 -19.3 82 -20 -20 прохладно 1028.7 1014.9
12 11.12 ЮЗ 1 10 км {снег} 10/0
[As op]
-16.6 -18.3 87 -19 -19 по сезону 1028.9 1015.2
15 11.12 Ю 1 500 м переохл. туман ?/? -14.8 -16.3 88 -17 -17 по сезону 1028.7 1015.1 -14.8 0.0
18 11.12 ЮЗ 2 500 м переохл. туман ?/? -13.4 -14.8 89 -18 -18 по сезону 1028.2 1014.7
21 11.12 ЮЗ 2 10 км {туман} 10/10 270 м
[St]
-13.6 -14.9 90 -18 -18 по сезону 1028.1 1014.5
00 12.12 ЮЗ 1 10 км {туман} 10/10 270 м
[St]
-13.6 -15.0 89 -16 -16 по сезону 1028.1 1014.6
03 12.12 ЮЗ 1 10 км 8/8 600 м
[Sc]
-13.7 -15.1 89 -16 -16 по сезону 1028.1 1014.5 -15.2 17
06 12.12 ЮЗ 1 4000 м [диам. изморози 17 мм] 10/0
[Ac trans Ci sp]
-13.1 -14.4 90 -15 -15 по сезону 1028.2 1014.7
09 12.12 Ю 1 4000 м 10/10 1050 м
[Sc]
-9.4 -10.4 92 -12 -12 по сезону 1027.5 1014.2
12 12.12 ЮЗ 1 10 км [диам. изморози 0 мм] 10/0
[Ci sp]
-8.4 -9.2 94 -11 -11 по сезону 1027.4 1014.1
15 12.12 Ю 1 10 км 10/0
[Ci sp]
-7.5 -8.2 95 -10 -10 по сезону 1027.0 1013.8 -7.5
18 12.12 ЮЗ 2 4000 м слабый снег 10/10 660 м
[Sc]
-7.0 -7.8 94 -12 -12 по сезону 1026.7 1013.5
21 12.12 Ю 1 10 км {снег} 10/0
[As op]
-6.6 -7.4 94 -9 -9 тепло 1025.9 1012.7
00 13.12 Ю 2 10 км {снег} 10/0
[Ac trans]
-6.0 -7.2 91 -10 -10 тепло 1025.1 1012.0
03 13.12 Ю 2 10 км 10/0
[Ac trans]
-5.2 -7.3 85 -9 -9 тепло 1024.4 1011.3 -7.5 0.0 17
06 13.12 Ю 2 4000 м 10/0
[Ac und]
-5.4 -7.6 84 -10 -10 тепло 1024.1 1011.0
09 13.12 Ю 2 4000 м 10/0
[Ac und]
-4.4 -7.2 81 -9 -8 тепло 1024.2 1011.2
12 13.12 штиль 0 10 км 9/0
[Ac lent Ci]
-7.4 -9.0 88 -8 -8 тепло 1025.1 1011.9
15 13.12 З 1 10 км 10/0
[Ci fib]
-5.8 -8.0 84 -8 -8 тепло 1025.7 1012.6 -4.3
18 13.12 СЗ 2 10 км 10/10 600 м
[Sc]
-4.4 -5.5 92 -9 -9 тепло 1027.2 1014.1

 

Местоположение метеостанции Тюмень (Тюменская область, Россия): широта 57.12 долгота 65.43 высота над уровнем моря 102 м.

В архиве по умолчанию представлена погода в Тюмени за последнюю неделю. Архивные данные за месяц целиком и за предыдущие месяцы, начиная с января 2011 года, Вы можете получить, выбрав интересующий диапазон дат из раскрывающегося списка и нажав кнопку "Ввод!".


*Определитесь, кто Вы:
робот инопланетянин человек

Внимание! Время в таблицах - всемирное. Для получения местного времени необходимо прибавить поправку, которая в Тюмени равна 5 ч.

Смотрите также архив погоды в соседних городах и на ближайших метеорологических станциях:

Погода в Тугулыме (Свердловская область, Россия) (46 км)
Погода в Ялуторовске (Тюменская область, Россия) (74 км)
Погода в Шатрово (Курганская область, Россия) (82 км)
Погода в Ярково (Тюменская область, Россия) (105 км)
Погода в Тавде (Свердловская область, Россия) (106 км)
Погода в Бутке (Свердловская область, Россия) (110 км)
Погода в Памятном (Курганская область, Россия) (123 км)
Погода в Туринске (Свердловская область, Россия) (147 км)
Погода в Ирбите (Свердловская область, Россия) (158 км)
Погода в Шадринске (Курганская область, Россия) (160 км)

Пояснения к столбцам:

Ветер - указаны скорость ветра в м/с - средняя за 10 мин, порывы в срок и между сроками (в фигурных скобках) и направление, откуда дует ветер: С - северный, СВ - северо-восточный, В - восточный, ЮВ - юго-восточный, Ю - южный, ЮЗ - юго-западный, З - западный, СЗ - северо-западный.
Видимость - горизонтальная дальность видимости в метрах или километрах. При видимости от 1 до 10 км при отсутствии осадков обычно наблюдается дымка, при ухудшении видимости до 1 км и менее - туман. В сухую погоду видимость может ухудшаться дымом, пылью или мглою.
Явления - указаны атмосферные явления, наблюдавшиеся в срок или в последний час перед сроком; фигурными скобками обозначены явления, наблюдавшиеся между сроками (за 1-3 часа до срока); квадратными скобками обозначены град или гололедные отложения с указанием их диаметра в мм.
Облачность - указаны через наклонную черту общая и нижняя облачность в баллах и высота нижней границы облаков в метрах; квадратными скобками обозначены формы облаков: Ci - перистые, Cs - перисто-слоистые, Cc - перисто-кучевые, Ac - высококучевые, As - высокослоистые, Sc - слоисто-кучевые, Ns - слоисто-дождевые, Cu - кучевые, Cb - кучево-дождевые. Подробнее классификацию облаков см. в Атласе облаков (PDF).
T - Температура воздуха - температура, измеренная на высоте 2 м над землей.
Td - Температура точки росы - температура, при понижении до которой содержащийся в воздухе водяной пар достигнет насыщения.
f - Относительная влажность воздуха - влажноcть воздуха, измеренная на высоте 2 м над землей.
Te - Эффективная температура - температура, которую ощущает одетый по сезону человек в тени. Характеристика душности погоды. При расчете учитывается влияние влажности воздуха и скорости ветра на теплоощущения человека.
Tes - Эффективная температура на солнце - температура, которую ощущает человек, с поправкой на солнечный нагрев. Характеристика знойности погоды. Зависит от высоты солнца над горизонтом, облачности и скорости ветра. Ночью, в пасмурную погоду, а также при ветре 12 м/с и более поправка равна нулю.
P - Атмосферное давление - приведенное к уровню моря атмосферное давление.
Po - Атмосферное давление - измеренное на уровне метеостанции атмосферное давление.
Tmin - Минимальная температура - минимум температуры воздуха на высоте 2 м над землей.
Tmax - Максимальная температура - максимум температуры воздуха на высоте 2 м над землей.
R - Количество осадков - Количество выпавших осадков за период времени, мм. При наведении курсора мыши на число - период времени, за который выпало указанное количество осадков.
R24 - Количество осадков - Количество выпавших осадков за 24 часа, мм.
S - Снежный покров - Высота снежного покрова, см. При наведении курсора мыши на число - состояние снежного покрова и степень покрытия местности в баллах.